Change the Weather History Date:

Monday, October 28, 2013

  Actual Average Record
Temperature  
Mean Temperature 46 °F 39 °F  
Max Temperature 58 °F 49 °F 68 °F (2008)
Min Temperature 34 °F 28 °F 15 °F (1996)
Degree Days  
Heating Degree Days 19 26  
Month to date heating degree days 598 574  
Since 1 July heating degree days 877 971  
Cooling Degree Days 0 0  
Month to date cooling degree days 0 0  
Year to date cooling degree days 348 162  
Moisture  
Dew Point 31 °F    
Average Humidity 58    
Maximum Humidity 92    
Minimum Humidity 24    
Precipitation  
Precipitation 0.09 in 0.04 in 0.11 in (2004)
Month to date precipitation 0.49 1.03  
Year to date precipitation 4.55 10.37  
Sea Level Pressure  
Sea Level Pressure 29.67 in    
Wind  
Wind Speed 15 mph (SSW)    
Max Wind Speed 25 mph    
Max Gust Speed 36 mph    
Visibility 5 miles    
Events Fog , Rain , Snow    
T = Trace of Precipitation, MM = Missing Value Source: NWS Daily Summary

Daily Weather History Graph

Daily Weather History Graph

Search for Another Location

Airport or City:

Trip Planner

Search our weather history database for the weather conditions in past years. The results will help you decide how hot, cold, wet, or windy it might be!

Date:

Astronomy

Oct. 28, 2013 Rise Set
Actual Time 7:51 AM MDT 6:24 PM MDT
Civil Twilight 7:22 AM MDT 6:52 PM MDT
Nautical Twilight 6:50 AM MDT 7:24 PM MDT
Astronomical Twilight 6:18 AM MDT 7:56 PM MDT
Moon 1:43 AM MDT (10/28) 3:11 PM MDT (10/28)
Length of Visible Light 11h 29m
Length of Day
10h 33m
Waning Crescent, 33% of the Moon is Illuminated
Oct 28
Waning Crescent
Nov 3
New
Nov 9
First Quarter
Nov 17
Full
Nov 25
Last Quarter

Hourly Weather History & Observations

Time (MDT) Temp. Windchill Dew Point Humidity Pressure Visibility Wind Dir Wind Speed Gust Speed Precip Events Conditions
12:53 AM 43.0 °F 37.2 °F 30.9 °F 62% 29.59 in 10.0 mi SE 10.4 mph - N/A   Scattered Clouds
1:53 AM 43.0 °F 36.0 °F 30.9 °F 62% 29.57 in 10.0 mi South 13.8 mph - N/A   Mostly Cloudy
2:53 AM 42.1 °F 34.9 °F 30.0 °F 62% 29.56 in 10.0 mi South 13.8 mph 20.7 mph N/A   Partly Cloudy
3:53 AM 42.1 °F 37.1 °F 30.0 °F 62% 29.54 in 10.0 mi SE 8.1 mph - N/A   Mostly Cloudy
4:53 AM 41.0 °F 35.2 °F 30.0 °F 65% 29.53 in 10.0 mi East 9.2 mph - N/A   Overcast
5:53 AM 39.0 °F 31.4 °F 30.9 °F 73% 29.55 in 10.0 mi East 12.7 mph - N/A   Clear
6:53 AM 39.0 °F 31.4 °F 28.9 °F 67% 29.56 in 10.0 mi East 12.7 mph - N/A   Clear
7:53 AM 37.9 °F 31.5 °F 30.0 °F 73% 29.55 in 10.0 mi East 9.2 mph - N/A   Clear
8:53 AM 41.0 °F 33.9 °F 30.9 °F 67% 29.57 in 10.0 mi East 12.7 mph 20.7 mph N/A   Clear
9:53 AM 45.0 °F 38.9 °F 30.9 °F 58% 29.53 in 10.0 mi East 12.7 mph - N/A   Clear
10:53 AM 50.0 °F - 30.0 °F 46% 29.48 in 10.0 mi East 13.8 mph 24.2 mph N/A   Clear
11:53 AM 53.1 °F - 21.9 °F 30% 29.46 in 10.0 mi SSE 19.6 mph 28.8 mph N/A   Scattered Clouds
12:53 PM 54.0 °F - 23.0 °F 30% 29.44 in 10.0 mi South 16.1 mph 28.8 mph N/A   Mostly Cloudy
1:53 PM 55.0 °F - 21.0 °F 27% 29.43 in 10.0 mi South 16.1 mph 32.2 mph N/A   Mostly Cloudy
2:53 PM 55.9 °F - 21.0 °F 26% 29.38 in 10.0 mi SSE 23.0 mph 38.0 mph N/A   Mostly Cloudy
3:53 PM 52.0 °F - 18.0 °F 26% 29.39 in 10.0 mi South 28.8 mph 36.8 mph N/A   Scattered Clouds
4:10 PM 46.4 °F 36.4 °F 26.6 °F 46% 29.62 in 9.0 mi SW 35.7 mph 57.5 mph 0.00 in Rain Light Rain
4:22 PM 39.2 °F 27.4 °F 33.8 °F 81% 29.64 in 10.0 mi WSW 29.9 mph 47.2 mph 0.00 in Rain Light Rain
4:32 PM 37.4 °F 25.6 °F 33.8 °F 87% 29.66 in 9.0 mi WSW 26.5 mph 39.1 mph 0.00 in Rain Light Rain
4:53 PM 35.1 °F 25.5 °F 33.1 °F 92% 29.61 in 3.0 mi WSW 15.0 mph 26.5 mph 0.04 in Snow Light Snow
5:02 PM 33.8 °F 23.5 °F 32.0 °F 93% 29.70 in 2.5 mi WSW 16.1 mph - 0.01 in Snow Light Snow
5:15 PM 35.6 °F 28.6 °F 33.8 °F 93% 29.72 in 7.0 mi SW 9.2 mph - 0.02 in Snow Light Snow
5:29 PM 35.6 °F 29.9 °F 33.8 °F 93% 29.73 in 10.0 mi WSW 6.9 mph - 0.04 in Rain Light Rain
5:53 PM 36.0 °F - 34.0 °F 93% 29.63 in 9.0 mi Calm Calm - 0.05 in Rain Light Rain
6:09 PM 35.6 °F - 33.8 °F 93% 29.71 in 10.0 mi Calm Calm - 0.01 in Rain Light Rain
6:14 PM 35.6 °F - 33.8 °F 93% 29.72 in 10.0 mi Calm Calm - 0.01 in Rain Light Rain
6:53 PM 35.1 °F 32.2 °F 34.0 °F 96% 29.68 in 5.0 mi SE 3.5 mph - 0.01 in Snow Light Snow
7:05 PM 35.6 °F 30.7 °F 33.8 °F 93% 29.75 in 4.0 mi SE 5.8 mph - 0.01 in Snow Light Snow
7:13 PM 33.8 °F - 33.8 °F 100% 29.75 in 2.5 mi Calm Calm - 0.02 in Snow Light Snow
7:30 PM 33.8 °F - 32.0 °F 93% 29.76 in 3.0 mi Calm Calm - 0.02 in Snow Light Snow
7:37 PM 33.8 °F - 32.0 °F 93% 29.76 in 2.5 mi Calm Calm - 0.03 in Snow Light Snow
7:46 PM 33.8 °F 30.8 °F 32.0 °F 93% 29.77 in 1.5 mi SE 3.5 mph - 0.03 in Snow Light Snow
7:53 PM 33.1 °F 28.7 °F 32.0 °F 96% 29.70 in 1.5 mi SSW 4.6 mph - 0.03 in Snow Light Snow
8:00 PM 33.8 °F 27.7 °F 32.0 °F 93% 29.77 in 1.2 mi WSW 6.9 mph - 0.00 in Snow Light Snow
8:07 PM 33.8 °F 30.8 °F 32.0 °F 93% 29.77 in 0.5 mi WNW 3.5 mph - 0.00 in Fog , Snow Snow
8:29 PM 32.0 °F 24.2 °F 32.0 °F 100% 29.76 in 0.8 mi WSW 9.2 mph - 0.00 in Snow Light Snow
8:31 PM 32.0 °F 24.8 °F 32.0 °F 100% 29.76 in 1.0 mi West 8.1 mph - 0.00 in Snow Light Snow
8:40 PM 32.0 °F 25.6 °F 32.0 °F 100% 29.76 in 0.8 mi WSW 6.9 mph - 0.00 in Snow Light Snow
8:53 PM 32.0 °F 25.6 °F 32.0 °F 100% 29.70 in 1.0 mi WSW 6.9 mph - 0.00 in Snow Light Snow
9:01 PM 32.0 °F 25.6 °F 32.0 °F 100% 29.77 in 1.5 mi WSW 6.9 mph - 0.00 in Snow Light Snow
9:10 PM 32.0 °F 24.8 °F 32.0 °F 100% 29.78 in 1.2 mi WSW 8.1 mph - 0.00 in Snow Light Snow
9:18 PM 32.0 °F 24.2 °F 32.0 °F 100% 29.78 in 0.5 mi WSW 9.2 mph - 0.00 in Fog , Snow Snow
9:27 PM 32.0 °F 24.2 °F 30.2 °F 93% 29.79 in 0.5 mi WSW 9.2 mph - 0.00 in Fog , Snow Snow
9:53 PM 32.0 °F 23.6 °F 30.9 °F 96% 29.70 in 0.5 mi WSW 10.4 mph 20.7 mph 0.00 in Fog , Snow Snow
10:12 PM 30.2 °F 24.3 °F 30.2 °F 100% 29.78 in 1.0 mi WSW 5.8 mph - 0.00 in Snow Light Snow
10:19 PM 30.2 °F 24.3 °F 30.2 °F 100% 29.79 in 1.5 mi SW 5.8 mph - 0.00 in Snow Light Snow
10:22 PM 30.2 °F 24.3 °F 30.2 °F 100% 29.79 in 2.0 mi SW 5.8 mph - 0.00 in Snow Light Snow
10:33 PM 30.2 °F 23.4 °F 30.2 °F 100% 29.79 in 3.0 mi SSW 6.9 mph - 0.00 in Snow Light Snow
10:36 PM 30.2 °F 24.3 °F 30.2 °F 100% 29.79 in 2.0 mi SSW 5.8 mph - 0.00 in   Overcast
10:49 PM 30.2 °F 25.4 °F 30.2 °F 100% 29.80 in 1.5 mi South 4.6 mph - 0.00 in Snow Light Snow
10:53 PM 30.9 °F 26.2 °F 30.9 °F 100% 29.70 in 0.8 mi SSE 4.6 mph - 0.00 in Snow Light Snow
11:10 PM 30.2 °F 24.3 °F 30.2 °F 100% 29.81 in 0.5 mi SE 5.8 mph - 0.00 in Fog , Snow Snow
11:26 PM 30.2 °F 26.7 °F 30.2 °F 100% 29.81 in 1.0 mi South 3.5 mph - 0.00 in Snow Light Snow
11:31 PM 30.2 °F 25.4 °F 30.2 °F 100% 29.82 in 2.0 mi South 4.6 mph - 0.00 in Snow Light Snow
11:36 PM 30.2 °F - 30.2 °F 100% 29.81 in 1.5 mi Calm Calm - 0.00 in Snow Light Snow
11:53 PM 30.9 °F - 30.9 °F 100% 29.70 in 1.0 mi Calm Calm - 0.00 in Snow Light Snow